Weather History for Dover AFB, DE

Change the Weather History Date:

Wednesday, July 24, 2013

  Actual Average Record
Temperature  
Mean Temperature 78 °F -  
Max Temperature 83 °F 86 °F 99 °F (1978)
Min Temperature 71 °F 66 °F 41 °F (2006)
Cooling Degree Days 12    
Growing Degree Days 28 (Base 50)    
Moisture  
Dew Point 69 °F    
Average Humidity 77    
Maximum Humidity 92    
Minimum Humidity 65    
Precipitation  
Precipitation 0.00 in - - ()
Sea Level Pressure  
Sea Level Pressure 29.76 in    
Wind  
Wind Speed 8 mph (WNW)    
Max Wind Speed 15 mph    
Max Gust Speed -    
Visibility 10 miles    
Events      
Averages and records for this station are not official NWS values.
T = Trace of Precipitation, MM = Missing Value Source: NWS Daily Summary

Daily Weather History Graph

Daily Weather History Graph

Search for Another Location

Airport:

Trip Planner

Search our weather history database for the weather conditions in past years. The results will help you decide how hot, cold, wet, or windy it might be!

Date:

Astronomy

Jul. 24, 2013 Rise Set
Actual Time 5:55 AM EDT 8:20 PM EDT
Civil Twilight 5:25 AM EDT 8:51 PM EDT
Nautical Twilight 4:47 AM EDT 9:28 PM EDT
Astronomical Twilight 4:05 AM EDT 10:10 PM EDT
Moon 9:26 PM EDT (7/24) 8:11 AM EDT (7/24)
Length of Visible Light 15h 26m
Length of Day
14h 25m
Waning Gibbous, 95% of the Moon is Illuminated
Jul 24
Waning Gibbous
Jul 29
Last Quarter
Aug 6
New
Aug 14
First Quarter
Aug 20
Full

Hourly Weather History & Observations

Time (EDT) Temp. Heat Index Dew Point Humidity Pressure Visibility Wind Dir Wind Speed Gust Speed Precip Events Conditions
12:58 AM 74.5 °F - 71.1 °F 89% 29.70 in 10.0 mi SW 8.1 mph - N/A   Clear
1:58 AM 74.3 °F - 70.3 °F 87% 29.68 in 10.0 mi SW 5.8 mph - N/A   Clear
2:58 AM 73.6 °F - 70.2 °F 89% 29.67 in 10.0 mi SSW 8.1 mph - N/A   Clear
3:58 AM 73.2 °F - 70.5 °F 91% 29.67 in 10.0 mi SW 8.1 mph - N/A   Clear
4:58 AM 72.9 °F - 70.5 °F 92% 29.67 in 10.0 mi SW 5.8 mph - N/A   Clear
5:58 AM 73.0 °F - 70.7 °F 92% 29.68 in 10.0 mi SW 5.8 mph - N/A   Clear
6:58 AM 74.5 °F - 71.2 °F 90% 29.70 in 10.0 mi WSW 5.8 mph - N/A   Clear
7:58 AM 77.4 °F - 70.9 °F 80% 29.71 in 10.0 mi West 9.2 mph - N/A   Clear
8:58 AM 78.3 °F - 70.2 °F 76% 29.74 in 10.0 mi WNW 5.8 mph - N/A   Clear
9:59 AM 80.2 °F 83.6 °F 70.3 °F 72% 29.74 in 10.0 mi NNW 9.2 mph - N/A   Clear
10:58 AM 81.9 °F 85.2 °F 69.1 °F 65% 29.77 in 10.0 mi NNW 10.4 mph - N/A   Clear
11:58 AM 82.2 °F 86.0 °F 69.8 °F 66% 29.78 in 10.0 mi West 6.9 mph - N/A   Scattered Clouds
12:58 PM 83.7 °F 88.3 °F 70.7 °F 65% 29.78 in 10.0 mi NW 10.4 mph - N/A   Scattered Clouds
1:58 PM 82.4 °F 87.0 °F 71.4 °F 69% 29.78 in 10.0 mi NW 11.5 mph - N/A   Partly Cloudy
2:58 PM 81.1 °F 84.9 °F 70.5 °F 70% 29.78 in 10.0 mi NNW 10.4 mph - N/A   Mostly Cloudy
3:58 PM 79.7 °F - 69.4 °F 71% 29.79 in 10.0 mi NW 9.2 mph - N/A   Mostly Cloudy
4:58 PM 81.3 °F 85.2 °F 70.5 °F 70% 29.79 in 10.0 mi North 13.8 mph - N/A   Scattered Clouds
5:58 PM 80.1 °F 82.9 °F 69.3 °F 69% 29.79 in 10.0 mi NNW 15.0 mph - N/A   Scattered Clouds
6:58 PM 78.8 °F - 68.5 °F 71% 29.81 in 10.0 mi North 9.2 mph - N/A   Scattered Clouds
7:58 PM 75.6 °F - 67.6 °F 76% 29.83 in 10.0 mi North 8.1 mph - N/A   Clear
8:58 PM 73.9 °F - 66.7 °F 78% 29.85 in 10.0 mi Variable 6.9 mph - N/A   Overcast
9:58 PM 74.3 °F - 66.2 °F 76% 29.88 in 10.0 mi NNW 6.9 mph - N/A   Overcast
10:58 PM 72.9 °F - 65.3 °F 77% 29.88 in 10.0 mi NNW 6.9 mph - N/A   Overcast
11:58 PM 71.8 °F - 64.0 °F 77% 29.89 in 10.0 mi North 12.7 mph - N/A   Overcast